DL9BGG-13 Weather Reports


time (UTC)temp
F
wind
direction
speed
knots
gust
knots
rain 1hr
in
rain 24hr
in
rain mn
in
humidity
%
barometer
mb
20260903214347 65 202 2.6 0.0 0.00 0.02 0.00 86 1058.3
20260903214240 65 225 0.0 0.0 0.00 0.02 0.00 86 1058.2
20260903214120 65 247 2.6 0.0 0.00 0.02 0.00 86 1058.3
20260903214004 65 247 0.0 0.0 0.00 0.02 0.00 86 1058.4
20260903213850 65 270 0.0 0.0 0.00 0.02 0.00 86 1058.4
20260903213728 65 247 0.0 0.0 0.00 0.02 0.00 86 1058.3
20260903213612 65 270 4.3 0.0 0.00 0.02 0.00 86 1058.3
20260903213459 65 270 7.8 0.0 0.00 0.02 0.00 86 1058.3
20260903213353 65 292 6.1 0.0 0.00 0.02 0.00 86 1058.3
20260903213246 65 270 2.6 0.0 0.00 0.02 0.00 86 1058.4
20260903213124 65 270 4.3 0.0 0.00 0.02 0.00 86 1058.3
20260903213010 65 315 4.3 0.0 0.00 0.02 0.00 86 1058.4
20260903212856 65 135 1.7 0.0 0.00 0.02 0.00 86 1058.4
20260903212751 65 270 5.2 0.0 0.00 0.02 0.00 86 1058.4
20260903212645 65 225 4.3 0.0 0.00 0.02 0.00 86 1058.4
20260903212539 65 292 3.5 0.0 0.00 0.02 0.00 86 1058.4
20260903212410 65 202 5.2 0.0 0.00 0.02 0.00 87 1058.4
20260903212249 65 202 2.6 0.0 0.00 0.02 0.00 87 1058.4
20260903212129 65 247 3.5 0.0 0.00 0.02 0.00 87 1058.4
20260903212024 65 247 1.7 0.0 0.00 0.02 0.00 87 1058.4
20260903211920 65 270 5.2 0.0 0.00 0.02 0.00 87 1058.4
20260903211815 65 270 3.5 0.0 0.00 0.02 0.00 87 1058.4
20260903211708 65 247 0.0 0.0 0.00 0.02 0.00 87 1058.4
20260903211555 65 292 5.2 0.0 0.00 0.02 0.00 87 1058.4
20260903211442 65 270 4.3 0.0 0.00 0.02 0.00 87 1058.4
20260903211338 65 270 3.5 0.0 0.00 0.02 0.00 87 1058.4
20260903211234 65 270 4.3 0.0 0.00 0.02 0.00 87 1058.4
20260903211121 65 225 4.3 0.0 0.00 0.02 0.00 87 1058.3
20260903211006 65 270 0.0 0.0 0.00 0.02 0.00 87 1058.3
20260903210853 65 292 0.0 0.0 0.00 0.02 0.00 87 1058.4
20260903210750 65 270 1.7 0.0 0.00 0.02 0.00 87 1058.4
20260903210642 65 270 6.1 0.0 0.00 0.02 0.00 87 1058.4
20260903210529 65 292 5.2 0.0 0.00 0.02 0.00 87 1058.4
20260903210408 65 247 0.0 0.0 0.00 0.02 0.00 87 1058.5
20260903210255 65 225 2.6 0.0 0.00 0.02 0.00 87 1058.5
20260903210150 65 202 3.5 0.0 0.00 0.02 0.00 87 1058.5
20260903210036 65 247 4.3 0.0 0.00 0.02 0.00 87 1058.6
20260903205916 65 247 4.3 0.0 0.00 0.02 0.00 87 1058.7
20260903205803 65 247 4.3 0.0 0.00 0.02 0.00 87 1058.6
20260903205649 65 247 5.2 0.0 0.00 0.02 0.00 87 1058.7
20260903205531 65 270 4.3 0.0 0.00 0.02 0.00 87 1058.6
20260903205426 65 270 5.2 0.0 0.00 0.02 0.00 87 1058.7
20260903205319 65 270 4.3 0.0 0.00 0.02 0.00 87 1058.6
20260903205212 65 292 5.2 0.0 0.00 0.02 0.00 86 1058.7
20260903205053 65 247 6.1 0.0 0.00 0.02 0.00 86 1058.7
20260903204939 65 247 5.2 0.0 0.00 0.02 0.00 86 1058.7
20260903204825 65 270 3.5 0.0 0.00 0.02 0.00 86 1058.7
20260903204711 65 270 3.5 0.0 0.00 0.02 0.00 86 1058.6
20260903204604 65 247 0.0 0.0 0.00 0.02 0.00 86 1058.6
20260903204450 65 225 4.3 0.0 0.00 0.02 0.00 86 1058.6
20260903204337 66 292 4.3 0.0 0.00 0.02 0.00 86 1058.7
20260903204225 66 292 5.2 0.0 0.00 0.02 0.00 86 1058.7
20260903204116 66 270 2.6 0.0 0.00 0.02 0.00 86 1058.7
20260903204002 66 247 3.5 0.0 0.00 0.02 0.00 86 1058.6
20260903203847 66 247 5.2 0.0 0.00 0.02 0.00 86 1058.7
20260903203725 66 247 10.4 0.0 0.00 0.02 0.00 86 1058.7
20260903203611 66 270 7.0 0.0 0.00 0.02 0.00 86 1058.6
20260903203505 66 270 3.5 0.0 0.00 0.02 0.00 86 1058.7
20260903203350 66 247 2.6 0.0 0.00 0.02 0.00 86 1058.6
20260903203238 66 270 4.3 0.0 0.00 0.02 0.00 86 1058.7
20260903203129 66 270 5.2 0.0 0.00 0.02 0.00 86 1058.7
20260903203008 66 247 3.5 0.0 0.00 0.02 0.00 86 1058.7
20260903202902 66 270 2.6 0.0 0.00 0.02 0.00 86 1058.7
20260903202756 66 247 6.1 0.0 0.00 0.02 0.00 86 1058.7
20260903202641 66 270 0.0 0.0 0.00 0.02 0.00 85 1058.7
20260903202512 66 270 3.5 0.0 0.00 0.02 0.00 85 1058.7
20260903202352 66 270 4.3 0.0 0.00 0.02 0.00 85 1058.8
20260903202247 66 292 3.5 0.0 0.00 0.02 0.00 85 1058.7
20260903202141 66 270 7.0 0.0 0.00 0.02 0.00 85 1058.7
20260903202035 66 270 3.5 0.0 0.00 0.02 0.00 85 1058.7
20260903201928 66 270 4.3 0.0 0.00 0.02 0.00 85 1058.7
20260903201818 66 270 4.3 0.0 0.00 0.02 0.00 85 1058.7
20260903201710 66 270 6.1 0.0 0.00 0.02 0.00 85 1058.7
20260903201557 66 270 5.2 0.0 0.00 0.02 0.00 86 1058.7
20260903201451 66 225 9.6 0.0 0.00 0.02 0.00 86 1058.7
20260903201330 66 247 3.5 0.0 0.00 0.02 0.00 86 1058.7
20260903201214 66 270 5.2 0.0 0.00 0.02 0.00 86 1058.8
20260903201100 66 270 6.1 0.0 0.00 0.02 0.00 86 1058.7
20260903200956 66 247 7.8 0.0 0.00 0.02 0.00 86 1058.8
20260903200851 66 247 4.3 0.0 0.00 0.02 0.00 86 1058.8
20260903200745 66 270 5.2 0.0 0.00 0.02 0.00 86 1058.8
20260903200639 66 270 5.2 0.0 0.00 0.02 0.00 86 1058.8
20260903200520 66 292 5.2 0.0 0.00 0.02 0.00 86 1058.8
20260903200414 66 292 5.2 0.0 0.00 0.02 0.00 86 1058.8
20260903200307 66 270 7.0 0.0 0.00 0.02 0.00 86 1058.8
20260903200157 66 270 1.7 0.0 0.00 0.02 0.00 86 1058.8
20260903200048 66 247 5.2 0.0 0.00 0.02 0.00 86 1058.8
20260903195934 66 292 0.0 0.0 0.00 0.02 0.00 86 1058.8
20260903195827 66 225 7.8 0.0 0.00 0.02 0.00 86 1058.8
20260903195709 66 270 3.5 0.0 0.00 0.02 0.00 86 1058.7
20260903195603 66 270 4.3 0.0 0.00 0.02 0.00 86 1058.7
20260903195448 66 315 2.6 0.0 0.00 0.02 0.00 87 1058.7
20260903195336 66 247 7.8 0.0 0.00 0.02 0.00 87 1058.7
20260903195217 66 337 0.9 0.0 0.00 0.02 0.00 87 1058.6
20260903195109 66 270 7.0 0.0 0.00 0.02 0.00 87 1058.7
20260903194947 66 315 4.3 0.0 0.00 0.02 0.00 87 1058.7
20260903194830 66 292 5.2 0.0 0.00 0.02 0.00 87 1058.7
20260903194722 66 292 4.3 0.0 0.00 0.02 0.00 87 1058.7
20260903194609 66 0 6.1 0.0 0.00 0.02 0.00 86 1058.7
20260903194456 66 270 6.1 0.0 0.00 0.02 0.00 86 1058.7
20260903194351 66 292 6.1 0.0 0.00 0.02 0.00 86 1058.8
20260903194245 66 270 0.0 0.0 0.00 0.02 0.00 86 1058.7
20260903194135 66 270 5.2 0.0 0.00 0.02 0.00 86 1058.8
20260903194027 66 270 0.0 0.0 0.00 0.02 0.00 86 1058.8
20260903193907 66 315 11.3 0.0 0.00 0.02 0.00 86 1058.8
20260903193803 66 292 3.5 0.0 0.00 0.02 0.00 86 1058.8
20260903193655 66 315 10.4 0.0 0.00 0.02 0.00 86 1058.8
20260903193542 66 292 5.2 0.0 0.00 0.02 0.00 86 1058.9
20260903193436 66 292 5.2 0.0 0.00 0.02 0.00 86 1058.9
20260903193329 66 292 5.2 0.0 0.00 0.02 0.00 86 1058.8
20260903193215 66 247 2.6 0.0 0.00 0.02 0.00 86 1058.8
20260903193102 66 225 3.5 0.0 0.00 0.02 0.00 86 1058.8
20260903192958 66 270 2.6 0.0 0.00 0.02 0.00 86 1058.9
20260903192850 66 292 3.5 0.0 0.00 0.02 0.00 86 1058.8
20260903192737 66 247 4.3 0.0 0.00 0.02 0.00 86 1058.7
20260903192624 66 292 3.5 0.0 0.00 0.02 0.00 86 1058.6
20260903192518 66 247 5.2 0.0 0.00 0.02 0.00 86 1058.7
20260903192413 66 270 5.2 0.0 0.00 0.02 0.00 86 1058.7
20260903192307 66 247 6.1 0.0 0.00 0.02 0.00 86 1058.7
20260903192200 66 270 4.3 0.0 0.00 0.02 0.00 86 1058.6
20260903192049 66 292 8.7 0.0 0.00 0.02 0.00 86 1058.6
20260903191935 66 315 7.0 0.0 0.00 0.02 0.00 86 1058.8
20260903191830 66 292 6.1 0.0 0.00 0.02 0.00 86 1058.6
20260903191724 66 270 1.7 0.0 0.00 0.02 0.00 86 1058.6
20260903191603 66 270 5.2 0.0 0.00 0.02 0.00 86 1058.7
20260903191433 66 247 5.2 0.0 0.00 0.02 0.00 86 1058.8
20260903191319 66 292 4.3 0.0 0.00 0.02 0.00 86 1058.8
20260903191150 66 270 0.0 0.0 0.00 0.02 0.00 86 1058.8
20260903191038 66 292 3.5 0.0 0.00 0.02 0.00 86 1058.7
20260903190908 66 270 2.6 0.0 0.00 0.02 0.00 86 1058.8
20260903190754 66 270 4.3 0.0 0.00 0.02 0.00 86 1058.7
20260903190649 66 270 11.3 0.0 0.00 0.02 0.00 86 1058.7
20260903190545 66 270 5.2 0.0 0.00 0.02 0.00 86 1058.7
20260903190438 66 292 3.5 0.0 0.00 0.02 0.00 86 1058.7
20260903190333 66 270 5.2 0.0 0.00 0.02 0.00 86 1058.7
20260903190226 66 292 6.1 0.0 0.00 0.02 0.00 86 1058.8
20260903190104 66 270 7.8 0.0 0.00 0.02 0.00 86 1058.7
20260903185950 66 247 8.7 0.0 0.00 0.02 0.00 86 1058.7
20260903185836 66 270 8.7 0.0 0.00 0.02 0.00 86 1058.6
20260903185731 66 225 3.5 0.0 0.00 0.02 0.00 86 1058.6
20260903185618 66 270 7.0 0.0 0.00 0.02 0.00 86 1058.6
20260903185505 66 247 6.1 0.0 0.00 0.02 0.00 86 1058.6
20260903185352 66 247 7.0 0.0 0.00 0.02 0.00 86 1058.6
20260903185244 66 247 4.3 0.0 0.00 0.02 0.00 86 1058.7
20260903185132 66 247 5.2 0.0 0.00 0.02 0.00 86 1058.7
20260903185026 66 292 3.5 0.0 0.00 0.02 0.00 86 1058.8
20260903184921 66 247 0.0 0.0 0.00 0.02 0.00 86 1058.8
20260903184815 66 270 6.1 0.0 0.00 0.02 0.00 86 1058.8
20260903184709 66 270 8.7 0.0 0.00 0.02 0.00 86 1058.7
20260903184603 66 270 5.2 0.0 0.00 0.02 0.00 86 1058.8
20260903184456 66 247 5.2 0.0 0.00 0.02 0.00 86 1058.8
20260903184334 66 270 0.0 0.0 0.00 0.02 0.00 86 1058.8
20260903184220 66 270 7.8 0.0 0.00 0.02 0.00 86 1058.8
20260903184057 66 292 6.1 0.0 0.00 0.02 0.00 85 1058.8
20260903183943 66 270 5.2 0.0 0.00 0.02 0.00 85 1058.7
20260903183821 66 315 0.0 0.0 0.00 0.02 0.00 85 1058.7
20260903183702 66 270 0.0 0.0 0.00 0.02 0.00 86 1058.7
20260903183554 66 292 3.5 0.0 0.00 0.02 0.00 86 1058.7
20260903183433 66 270 3.5 0.0 0.00 0.02 0.00 85 1058.7
20260903183306 66 247 8.7 0.0 0.00 0.02 0.00 85 1058.6
20260903183158 66 270 3.5 0.0 0.00 0.02 0.00 85 1058.6
20260903183044 66 292 5.2 0.0 0.00 0.02 0.00 84 1058.6
20260903182923 66 292 5.2 0.0 0.00 0.02 0.00 84 1058.7
20260903182818 66 247 7.0 0.0 0.00 0.02 0.00 84 1058.7
20260903182705 66 292 4.3 0.0 0.00 0.02 0.00 84 1058.9
20260903182559 66 247 5.2 0.0 0.00 0.02 0.00 84 1058.8
20260903182446 66 292 6.1 0.0 0.00 0.02 0.00 84 1058.8
20260903182340 66 292 7.0 0.0 0.00 0.02 0.00 84 1058.7
20260903182235 66 270 10.4 0.0 0.00 0.02 0.00 84 1058.8
20260903182122 66 270 5.2 0.0 0.00 0.02 0.00 84 1058.7
20260903182001 66 292 5.2 0.0 0.00 0.02 0.00 84 1058.7
20260903181848 66 270 3.5 0.0 0.00 0.02 0.00 84 1058.7
20260903181734 66 315 6.1 0.0 0.00 0.02 0.00 84 1058.7
20260903181614 66 270 7.0 0.0 0.00 0.02 0.00 84 1058.7
20260903181500 66 292 5.2 0.0 0.00 0.02 0.00 84 1058.7
20260903181332 66 292 3.5 0.0 0.00 0.02 0.00 84 1058.7
20260903181217 66 270 7.0 0.0 0.00 0.02 0.00 83 1058.7
20260903181055 66 292 0.0 0.0 0.00 0.02 0.00 83 1058.7
20260903180934 66 270 5.2 0.0 0.00 0.02 0.00 83 1058.7
20260903180813 66 292 10.4 0.0 0.00 0.02 0.00 83 1058.7
20260903180700 66 270 2.6 0.0 0.00 0.02 0.00 82 1058.6
20260903180546 66 270 7.0 0.0 0.00 0.02 0.00 82 1058.6
20260903180433 67 270 6.1 0.0 0.00 0.02 0.00 82 1058.6
20260903180320 67 225 4.3 0.0 0.00 0.02 0.00 82 1058.6
20260903180207 67 270 6.1 0.0 0.00 0.02 0.00 82 1058.5
20260903180053 67 270 4.3 0.0 0.00 0.02 0.00 82 1058.5
20260903175925 67 315 5.2 0.0 0.00 0.02 0.00 82 1058.5
20260903175806 67 270 5.2 0.0 0.00 0.02 0.00 82 1058.6
20260903175659 67 292 0.0 0.0 0.00 0.02 0.00 82 1058.7
20260903175553 67 292 6.1 0.0 0.00 0.02 0.00 81 1058.6
20260903175432 67 292 6.1 0.0 0.00 0.02 0.00 81 1058.6
20260903175318 67 292 7.8 0.0 0.00 0.02 0.00 81 1058.6
20260903175149 67 315 0.0 0.0 0.00 0.02 0.00 81 1058.6
20260903175036 67 315 4.3 0.0 0.00 0.02 0.00 81 1058.7
20260903174932 67 270 7.8 0.0 0.00 0.02 0.00 81 1058.7
20260903174827 67 292 5.2 0.0 0.00 0.02 0.00 82 1058.7
20260903174715 67 337 9.6 0.0 0.00 0.02 0.00 82 1058.7
20260903174600 67 0 2.6 0.0 0.00 0.02 0.00 82 1058.8
20260903174447 67 315 7.8 0.0 0.00 0.02 0.00 81 1058.8
20260903174334 67 270 11.3 0.0 0.00 0.02 0.00 81 1058.8
20260903174229 67 292 5.2 0.0 0.00 0.02 0.00 82 1058.7
20260903174116 67 270 9.6 0.0 0.00 0.02 0.00 82 1058.7
20260903174003 67 315 2.6 0.0 0.00 0.02 0.00 82 1058.7
20260903173858 67 270 13.0 0.0 0.00 0.02 0.00 82 1058.7
20260903173747 67 270 6.1 0.0 0.00 0.02 0.00 82 1058.8
20260903173641 67 315 3.5 0.0 0.00 0.02 0.00 82 1058.8
20260903173535 67 292 5.2 0.0 0.00 0.02 0.00 82 1058.8
20260903173430 67 292 3.5 0.0 0.00 0.02 0.00 82 1058.8
20260903173317 67 270 4.3 0.0 0.00 0.02 0.00 82 1058.8
20260903173211 67 292 4.3 0.0 0.00 0.02 0.00 82 1058.8
20260903173052 67 292 14.8 0.0 0.00 0.02 0.00 82 1058.8
20260903172945 67 270 7.8 0.0 0.00 0.02 0.00 81 1058.8
20260903172823 67 270 8.7 0.0 0.00 0.02 0.00 81 1058.8
20260903172703 67 292 7.8 0.0 0.00 0.02 0.00 81 1058.7
20260903172600 67 315 7.8 0.0 0.00 0.02 0.00 81 1058.7
20260903172455 67 315 6.1 0.0 0.00 0.02 0.00 81 1058.7
20260903172350 67 270 5.2 0.0 0.00 0.02 0.00 81 1058.7
20260903172235 67 292 7.0 0.0 0.00 0.02 0.00 80 1058.7
20260903172122 67 292 4.3 0.0 0.00 0.02 0.00 81 1058.7
20260903172017 67 270 3.5 0.0 0.00 0.02 0.00 80 1058.7
20260903171912 67 270 7.8 0.0 0.00 0.02 0.00 81 1058.7
20260903171801 67 270 7.0 0.0 0.00 0.02 0.00 81 1058.7
20260903171645 67 315 10.4 0.0 0.00 0.02 0.00 80 1058.8
20260903171532 67 292 11.3 0.0 0.00 0.02 0.00 81 1058.8
20260903171419 67 292 5.2 0.0 0.00 0.02 0.00 81 1058.8
20260903171307 67 225 7.8 0.0 0.00 0.02 0.00 81 1058.7
20260903171153 68 292 11.3 0.0 0.00 0.02 0.00 81 1058.8
20260903171039 68 315 10.4 0.0 0.00 0.02 0.00 81 1058.7
20260903170926 68 315 4.3 0.0 0.00 0.02 0.00 81 1058.7
20260903170822 68 315 4.3 0.0 0.00 0.02 0.00 81 1058.6
20260903170708 68 337 5.2 0.0 0.00 0.02 0.00 81 1058.6
20260903170555 68 292 6.1 0.0 0.00 0.02 0.00 81 1058.6
20260903170442 68 247 6.1 0.0 0.00 0.02 0.00 80 1058.6
20260903170329 68 292 7.0 0.0 0.00 0.02 0.00 80 1058.6
20260903170215 68 270 7.0 0.0 0.00 0.02 0.00 80 1058.7
20260903165952 68 270 9.6 0.0 0.00 0.02 0.00 81 1058.7
20260903165847 68 315 7.8 0.0 0.00 0.02 0.00 81 1058.7
20260903165739 68 292 10.4 0.0 0.00 0.02 0.00 81 1058.7
20260903165626 68 315 8.7 0.0 0.00 0.02 0.00 81 1058.7
20260903165513 68 292 0.0 0.0 0.00 0.02 0.00 80 1058.8
20260903165402 68 315 7.8 0.0 0.00 0.02 0.00 80 1058.7
20260903165257 68 270 5.2 0.0 0.00 0.02 0.00 80 1058.7
20260903165151 68 315 3.5 0.0 0.00 0.02 0.00 80 1058.7
20260903165047 68 270 11.3 0.0 0.00 0.02 0.00 81 1058.6
20260903164932 68 315 6.1 0.0 0.00 0.02 0.00 81 1058.6
20260903164818 68 270 5.2 0.0 0.00 0.02 0.00 81 1058.5
20260903164706 68 337 5.2 0.0 0.00 0.02 0.00 81 1058.5
20260903164552 68 270 5.2 0.0 0.00 0.02 0.00 81 1058.4
20260903164442 68 247 6.1 0.0 0.00 0.02 0.00 81 1058.4
20260903164334 68 292 3.5 0.0 0.00 0.02 0.00 81 1058.4
20260903164221 68 292 6.1 0.0 0.00 0.02 0.00 80 1058.3
20260903164116 68 292 13.9 0.0 0.00 0.02 0.00 80 1058.4
20260903164003 68 292 7.0 0.0 0.00 0.02 0.00 80 1058.4
20260903163850 68 270 7.0 0.0 0.00 0.02 0.00 80 1058.4
20260903163728 68 315 4.3 0.0 0.00 0.02 0.00 80 1058.4
20260903163607 68 315 4.3 0.0 0.00 0.02 0.00 80 1058.6
20260903163456 68 270 7.0 0.0 0.00 0.02 0.00 80 1058.6
20260903163350 68 292 6.1 0.0 0.00 0.02 0.00 80 1058.7
20260903163236 68 292 0.0 0.0 0.00 0.02 0.00 80 1058.7
20260903163123 68 225 6.1 0.0 0.00 0.02 0.00 80 1058.7
20260903163012 69 270 5.2 0.0 0.00 0.02 0.00 81 1058.7
20260903162905 68 292 6.1 0.0 0.00 0.02 0.00 80 1058.7
20260903162744 69 292 0.0 0.0 0.00 0.02 0.00 80 1058.7
20260903162639 69 315 5.2 0.0 0.00 0.02 0.00 80 1058.6
20260903162533 69 247 5.2 0.0 0.00 0.02 0.00 80 1058.5
20260903162427 69 225 0.0 0.0 0.00 0.02 0.00 80 1058.5
20260903162321 69 270 3.5 0.0 0.00 0.02 0.00 80 1058.5
20260903162215 69 247 5.2 0.0 0.00 0.02 0.00 80 1058.5
20260903162108 69 315 8.7 0.0 0.00 0.02 0.00 80 1058.5
20260903162003 69 270 7.0 0.0 0.00 0.02 0.00 80 1058.5
20260903161856 69 315 0.0 0.0 0.00 0.02 0.00 80 1058.5
20260903161741 69 292 3.5 0.0 0.00 0.02 0.00 79 1058.5
20260903161628 69 292 1.7 0.0 0.00 0.02 0.00 79 1058.5
20260903161515 69 292 9.6 0.0 0.00 0.02 0.00 80 1058.5
20260903161401 69 315 6.1 0.0 0.00 0.02 0.00 80 1058.6
20260903161247 69 292 4.3 0.0 0.00 0.02 0.00 79 1058.6
20260903161127 69 292 5.2 0.0 0.00 0.02 0.00 79 1058.6
20260903160958 69 270 13.0 0.0 0.00 0.02 0.00 79 1058.6
20260903160845 69 315 10.4 0.0 0.00 0.02 0.00 79 1058.5
20260903160732 69 292 6.1 0.0 0.00 0.02 0.00 79 1058.6
20260903160626 69 315 5.2 0.0 0.00 0.02 0.00 79 1058.6
20260903160521 69 315 6.1 0.0 0.00 0.02 0.00 79 1058.6
20260903160409 69 337 4.3 0.0 0.00 0.02 0.00 79 1058.5
20260903160239 69 292 6.1 0.0 0.00 0.02 0.00 79 1058.5
20260903160133 69 337 6.1 0.0 0.00 0.02 0.00 80 1058.4
20260903160021 69 315 9.6 0.0 0.00 0.02 0.00 80 1058.4
20260903155914 69 292 5.2 0.0 0.00 0.02 0.00 80 1058.4
20260903155800 69 270 14.8 0.0 0.00 0.02 0.00 79 1058.4
20260903155638 69 315 8.7 0.0 0.00 0.02 0.00 79 1058.4
20260903155533 69 315 5.2 0.0 0.00 0.02 0.00 80 1058.4
20260903155427 69 337 7.0 0.0 0.00 0.02 0.00 80 1058.3
20260903155321 69 180 5.2 0.0 0.00 0.02 0.00 80 1058.3
20260903155216 69 315 2.6 0.0 0.00 0.02 0.00 80 1058.3
20260903155109 69 315 7.0 0.0 0.00 0.02 0.00 80 1058.3
20260903154957 69 270 3.5 0.0 0.00 0.02 0.00 80 1058.3
20260903154843 69 315 4.3 0.0 0.00 0.02 0.00 79 1058.4
20260903154721 69 292 4.3 0.0 0.00 0.02 0.00 80 1058.5
20260903154616 69 337 7.8 0.0 0.00 0.02 0.00 80 1058.5
20260903154510 69 292 4.3 0.0 0.00 0.02 0.00 80 1058.4
20260903154404 69 270 9.6 0.0 0.00 0.02 0.00 80 1058.5
20260903154253 69 337 6.1 0.0 0.00 0.02 0.00 80 1058.4
20260903154146 69 270 3.5 0.0 0.00 0.02 0.00 80 1058.5
20260903154032 69 270 13.9 0.0 0.00 0.02 0.00 80 1058.5
20260903153903 69 292 7.8 0.0 0.00 0.02 0.00 80 1058.5
20260903153750 69 292 9.6 0.0 0.00 0.02 0.00 80 1058.5
20260903153629 69 270 9.6 0.0 0.00 0.02 0.00 80 1058.5
20260903153525 69 270 11.3 0.0 0.00 0.02 0.00 80 1058.5
20260903153420 69 315 7.8 0.0 0.00 0.02 0.00 80 1058.5
20260903153313 70 337 4.3 0.0 0.00 0.02 0.00 80 1058.5
20260903153200 70 270 9.6 0.0 0.00 0.02 0.00 80 1058.4
20260903153054 70 270 5.2 0.0 0.00 0.02 0.00 80 1058.4
20260903152941 70 292 7.0 0.0 0.00 0.02 0.00 79 1058.4
20260903152835 70 315 8.7 0.0 0.00 0.02 0.00 79 1058.4
20260903152721 70 315 17.4 0.0 0.00 0.02 0.00 79 1058.4
20260903152608 70 292 10.4 0.0 0.00 0.02 0.00 78 1058.4
20260903152454 70 292 3.5 0.0 0.00 0.02 0.00 78 1058.3
20260903152333 70 315 5.2 0.0 0.00 0.02 0.00 78 1058.3
20260903152227 70 292 7.8 0.0 0.00 0.02 0.00 78 1058.3
20260903152114 71 247 7.0 0.0 0.00 0.02 0.00 78 1058.4
20260903152001 70 337 6.1 0.0 0.00 0.02 0.00 78 1058.2
20260903151839 71 292 7.0 0.0 0.00 0.02 0.00 78 1058.3
20260903151718 71 292 11.3 0.0 0.00 0.02 0.00 78 1058.3
20260903151558 71 292 8.7 0.0 0.00 0.02 0.00 78 1058.3
20260903151452 71 292 10.4 0.0 0.00 0.02 0.00 78 1058.3
20260903151348 71 292 11.3 0.0 0.00 0.02 0.00 79 1058.2
20260903151242 70 292 4.3 0.0 0.00 0.02 0.00 79 1058.3
20260903151129 70 270 3.5 0.0 0.00 0.02 0.00 79 1058.3
20260903151023 70 337 5.2 0.0 0.00 0.02 0.00 79 1058.2
20260903150910 70 315 12.2 0.0 0.00 0.02 0.00 79 1058.2
20260903150758 70 315 6.1 0.0 0.00 0.02 0.00 79 1058.3
20260903150650 70 337 3.5 0.0 0.00 0.02 0.00 79 1058.3
20260903150536 70 247 7.8 0.0 0.00 0.02 0.00 79 1058.3
20260903150430 70 315 7.8 0.0 0.00 0.02 0.00 79 1058.3
20260903150317 70 247 5.2 0.0 0.00 0.02 0.00 79 1058.2
20260903150210 70 315 14.8 0.0 0.00 0.02 0.00 79 1058.2
20260903150048 70 270 10.4 0.0 0.00 0.02 0.00 79 1058.1
20260903145935 70 22 5.2 0.0 0.00 0.02 0.00 79 1058.2
20260903145821 70 292 5.2 0.0 0.00 0.02 0.00 79 1058.1
20260903145716 70 315 5.2 0.0 0.00 0.02 0.00 79 1058.1
20260903145610 70 270 9.6 0.0 0.00 0.02 0.00 79 1058.1
20260903145440 70 292 7.0 0.0 0.00 0.02 0.00 79 1058.2
20260903145327 70 315 13.9 0.0 0.00 0.02 0.00 79 1058.1
20260903145221 70 270 5.2 0.0 0.00 0.02 0.00 79 1058.1
20260903145110 70 270 7.0 0.0 0.00 0.02 0.00 79 1058.2
20260903145003 70 292 6.1 0.0 0.00 0.02 0.00 79 1058.2
20260903144833 70 292 7.0 0.0 0.00 0.02 0.00 80 1058.2
20260903144728 70 270 7.8 0.0 0.00 0.02 0.00 80 1058.1
20260903144605 70 270 4.3 0.0 0.00 0.02 0.00 80 1058.1
20260903144452 70 315 11.3 0.0 0.00 0.02 0.00 80 1058.1
20260903144338 70 292 10.4 0.0 0.00 0.02 0.00 79 1058.1
20260903144226 70 315 5.2 0.0 0.00 0.02 0.00 80 1058.1
20260903144110 70 315 6.1 0.0 0.00 0.02 0.00 79 1058.0
20260903143950 71 292 7.8 0.0 0.00 0.02 0.00 79 1058.0
20260903143845 71 247 10.4 0.0 0.00 0.02 0.00 79 1058.0
20260903143738 71 0 0.0 0.0 0.00 0.02 0.00 79 1058.0
20260903143616 70 337 3.5 0.0 0.00 0.02 0.00 79 1058.1
20260903143456 70 292 6.1 0.0 0.00 0.02 0.00 79 1058.0
20260903143343 70 270 6.1 0.0 0.00 0.02 0.00 79 1058.1
20260903143228 70 270 10.4 0.0 0.00 0.02 0.00 79 1058.0
20260903143122 70 292 5.2 0.0 0.00 0.02 0.00 79 1058.0
20260903143001 70 270 4.3 0.0 0.00 0.02 0.00 80 1058.0
20260903142847 70 337 5.2 0.0 0.00 0.02 0.00 79 1058.0
20260903142726 70 292 4.3 0.0 0.00 0.02 0.00 79 1058.1
20260903142606 70 247 13.0 0.0 0.00 0.02 0.00 79 1058.0
20260903142451 70 0 4.3 0.0 0.00 0.02 0.00 79 1058.1
20260903142329 71 315 5.2 0.0 0.00 0.02 0.00 78 1058.0
20260903142225 70 270 11.3 0.0 0.00 0.02 0.00 78 1058.0
20260903142119 71 270 5.2 0.0 0.00 0.02 0.00 78 1058.0
20260903142013 71 315 8.7 0.0 0.00 0.02 0.00 78 1058.1
20260903141844 71 315 5.2 0.0 0.00 0.02 0.00 78 1058.0
20260903141731 71 270 6.1 0.0 0.00 0.02 0.00 78 1057.9
20260903141626 71 270 5.2 0.0 0.00 0.02 0.00 77 1058.0
20260903141457 71 292 0.0 0.0 0.00 0.02 0.00 77 1058.0
20260903141344 71 292 3.5 0.0 0.00 0.02 0.00 77 1058.1
20260903141222 71 247 1.7 0.0 0.00 0.02 0.00 77 1058.0
20260903141102 71 270 8.7 0.0 0.00 0.02 0.00 77 1058.0
20260903140956 71 292 4.3 0.0 0.00 0.02 0.00 77 1058.0
20260903140835 71 292 5.2 0.0 0.00 0.02 0.00 77 1058.0
20260903140705 71 270 3.5 0.0 0.00 0.02 0.00 76 1058.0
20260903140554 71 315 6.1 0.0 0.00 0.02 0.00 76 1058.0
20260903140447 71 270 7.8 0.0 0.00 0.02 0.00 76 1057.9
20260903140320 72 0 5.2 0.0 0.00 0.02 0.00 76 1058.0
20260903140207 71 292 3.5 0.0 0.00 0.02 0.00 76 1057.9
20260903140052 72 337 3.5 0.0 0.00 0.02 0.00 76 1057.9
20260903135939 72 292 8.7 0.0 0.00 0.02 0.00 76 1057.9
20260903135817 72 0 5.2 0.0 0.00 0.02 0.00 76 1058.0
20260903135704 72 315 3.5 0.0 0.00 0.02 0.00 76 1058.0
20260903135550 72 315 3.5 0.0 0.00 0.02 0.00 76 1058.0
20260903135431 72 292 10.4 0.0 0.00 0.02 0.00 76 1057.9
20260903135325 72 315 2.6 0.0 0.00 0.02 0.00 76 1057.9
20260903135214 72 292 1.7 0.0 0.00 0.02 0.00 76 1057.9
20260903135059 72 247 10.4 0.0 0.00 0.02 0.00 76 1057.9
20260903134938 72 247 8.7 0.0 0.00 0.02 0.00 76 1057.8
20260903134824 72 270 5.2 0.0 0.00 0.02 0.00 76 1057.9
20260903134704 72 270 15.6 0.0 0.00 0.02 0.00 76 1057.9
20260903134552 72 247 3.5 0.0 0.00 0.02 0.00 76 1057.8
20260903134439 72 337 12.2 0.0 0.00 0.02 0.00 76 1057.8
20260903134333 72 270 8.7 0.0 0.00 0.02 0.00 76 1057.7
20260903134227 72 292 5.2 0.0 0.00 0.02 0.00 76 1057.7
20260903134114 72 292 6.1 0.0 0.00 0.02 0.00 77 1057.7
20260903134002 72 292 6.1 0.0 0.00 0.02 0.00 77 1057.8
20260903133857 72 270 6.1 0.0 0.00 0.02 0.00 77 1057.8
20260903133750 72 337 4.3 0.0 0.00 0.02 0.00 77 1057.7
20260903133631 72 315 9.6 0.0 0.00 0.02 0.00 78 1057.8
20260903133524 72 315 7.0 0.0 0.00 0.02 0.00 78 1057.9
20260903133403 72 292 13.0 0.0 0.00 0.02 0.00 78 1057.8
20260903133244 72 292 11.3 0.0 0.00 0.02 0.00 78 1057.8
20260903133138 71 292 4.3 0.0 0.00 0.02 0.00 77 1057.8
20260903133024 71 270 11.3 0.0 0.00 0.02 0.00 77 1057.8
20260903132910 72 292 15.6 0.0 0.00 0.02 0.00 78 1057.7
20260903132759 72 270 2.6 0.0 0.00 0.02 0.00 78 1057.7
20260903132652 72 315 7.0 0.0 0.00 0.02 0.00 79 1057.8
20260903132531 72 270 4.3 0.0 0.00 0.02 0.00 79 1057.8
20260903132411 72 315 5.2 0.0 0.00 0.02 0.00 79 1057.9
20260903132256 72 270 5.2 0.0 0.00 0.02 0.00 79 1057.9
20260903132144 72 315 6.1 0.0 0.00 0.02 0.00 78 1057.9
20260903132031 72 337 7.8 0.0 0.00 0.02 0.00 78 1057.8
20260903131920 72 292 4.3 0.0 0.00 0.02 0.00 78 1057.8
20260903131814 72 292 5.2 0.0 0.00 0.02 0.00 78 1057.8
20260903131708 72 292 7.8 0.0 0.00 0.02 0.00 77 1057.9
20260903131556 72 292 10.4 0.0 0.00 0.02 0.00 77 1057.8
20260903131449 72 292 5.2 0.0 0.00 0.02 0.00 77 1057.9
20260903131336 72 315 2.6 0.0 0.00 0.02 0.00 77 1057.9
20260903131217 72 315 13.0 0.0 0.00 0.02 0.00 77 1057.7
20260903131109 72 292 0.0 0.0 0.00 0.02 0.00 77 1057.8
20260903130957 72 292 11.3 0.0 0.00 0.02 0.00 77 1057.7
20260903130835 72 337 9.6 0.0 0.00 0.02 0.00 77 1057.8
20260903130724 72 315 8.7 0.0 0.00 0.02 0.00 77 1057.8
20260903130617 72 270 4.3 0.0 0.00 0.02 0.00 77 1057.8
20260903130504 72 270 5.2 0.0 0.00 0.02 0.00 78 1057.9
20260903130351 72 292 6.1 0.0 0.00 0.02 0.00 78 1057.8
20260903130230 72 315 8.7 0.0 0.00 0.02 0.00 78 1057.9
20260903130117 72 247 5.2 0.0 0.00 0.02 0.00 78 1057.8
20260903130003 72 337 11.3 0.0 0.00 0.02 0.00 78 1057.9
20260903125842 72 270 3.5 0.0 0.00 0.02 0.00 78 1057.9
20260903125731 72 292 9.6 0.0 0.00 0.02 0.00 78 1057.9
20260903125627 72 315 7.0 0.0 0.00 0.02 0.00 78 1057.7
20260903125519 72 292 3.5 0.0 0.00 0.02 0.00 78 1057.8
20260903125406 72 292 7.8 0.0 0.00 0.02 0.00 78 1057.8
20260903125252 72 270 7.8 0.0 0.00 0.02 0.00 77 1057.9
20260903125134 72 270 7.0 0.0 0.00 0.02 0.00 77 1057.8
20260903125020 72 292 7.0 0.0 0.00 0.02 0.00 77 1057.8
20260903124913 72 270 6.1 0.0 0.00 0.02 0.00 77 1057.7
20260903124800 72 292 5.2 0.0 0.00 0.02 0.00 77 1057.7
20260903124647 72 0 5.2 0.0 0.00 0.02 0.00 77 1057.6
20260903124526 72 270 7.8 0.0 0.00 0.02 0.00 77 1057.7
20260903124415 72 315 7.8 0.0 0.00 0.02 0.00 77 1057.6
20260903124308 73 292 2.6 0.0 0.00 0.02 0.00 76 1057.7
20260903124147 73 315 7.0 0.0 0.00 0.02 0.00 76 1057.5
20260903124042 73 315 16.5 0.0 0.00 0.02 0.00 76 1057.5
20260903123928 73 292 2.6 0.0 0.00 0.02 0.00 76 1057.5
20260903123802 73 270 7.8 0.0 0.00 0.02 0.00 76 1057.5
20260903123653 73 270 10.4 0.0 0.00 0.02 0.00 76 1057.6
20260903123533 73 270 10.4 0.0 0.00 0.02 0.00 76 1057.5
20260903123415 74 270 2.6 0.0 0.00 0.02 0.00 75 1057.5
20260903123307 74 292 8.7 0.0 0.00 0.02 0.00 74 1057.5
20260903123153 74 292 5.2 0.0 0.00 0.02 0.00 74 1057.5
20260903123041 74 247 4.3 0.0 0.00 0.02 0.00 74 1057.5
20260903122919 74 270 7.0 0.0 0.00 0.02 0.00 73 1057.5
20260903122809 74 292 9.6 0.0 0.00 0.02 0.00 73 1057.4
20260903122701 75 337 5.2 0.0 0.00 0.02 0.00 73 1057.4
20260903122532 75 337 6.1 0.0 0.00 0.02 0.00 73 1057.4
20260903122419 75 315 7.0 0.0 0.00 0.02 0.00 73 1057.4
20260903122314 75 247 7.0 0.0 0.00 0.02 0.00 72 1057.4
20260903122209 75 315 7.0 0.0 0.00 0.02 0.00 72 1057.3
20260903122056 75 315 4.3 0.0 0.00 0.02 0.00 72 1057.4
20260903121934 76 337 7.0 0.0 0.00 0.02 0.00 72 1057.4
20260903121821 76 225 8.7 0.0 0.00 0.02 0.00 72 1057.3
20260903121707 76 315 7.0 0.0 0.00 0.02 0.00 72 1057.4
20260903121547 76 315 4.3 0.0 0.00 0.02 0.00 72 1057.3
20260903121434 76 270 10.4 0.0 0.00 0.02 0.00 71 1057.3
20260903121320 76 292 7.0 0.0 0.00 0.02 0.00 71 1057.2
20260903121159 76 270 9.6 0.0 0.00 0.02 0.00 71 1057.2
20260903121046 76 270 8.7 0.0 0.00 0.02 0.00 71 1057.3
20260903120926 76 247 9.6 0.0 0.00 0.02 0.00 71 1057.3
20260903120820 76 315 5.2 0.0 0.00 0.02 0.00 71 1057.2
20260903120659 76 270 17.4 0.0 0.00 0.02 0.00 71 1057.1
20260903120548 76 270 13.0 0.0 0.00 0.02 0.00 72 1057.2
20260903120440 76 270 7.0 0.0 0.00 0.02 0.00 72 1057.2
20260903120328 76 292 16.5 0.0 0.00 0.02 0.00 72 1057.1
20260903120214 76 270 9.6 0.0 0.00 0.02 0.00 73 1057.2
20260903120100 76 247 13.9 0.0 0.00 0.02 0.00 73 1057.0
20260903115940 75 337 6.1 0.0 0.00 0.02 0.00 75 1057.3
20260903115821 75 315 5.2 0.0 0.00 0.02 0.00 75 1057.2
20260903115706 75 315 7.0 0.0 0.00 0.02 0.00 75 1057.3
20260903115554 74 247 6.1 0.0 0.00 0.02 0.00 76 1057.2
20260903115448 74 292 7.0 0.0 0.00 0.02 0.00 77 1057.2
20260903115335 73 315 5.2 0.0 0.00 0.02 0.00 78 1057.2
20260903115213 73 292 12.2 0.0 0.00 0.02 0.00 78 1057.2
20260903115052 72 292 3.5 0.0 0.00 0.02 0.00 79 1057.1
20260903114940 72 292 7.8 0.0 0.00 0.02 0.00 78 1057.2
20260903114827 72 292 6.1 0.0 0.00 0.02 0.00 78 1057.2
20260903114720 72 292 10.4 0.0 0.00 0.02 0.00 77 1057.2
20260903114600 72 292 4.3 0.0 0.00 0.02 0.00 76 1057.2
20260903114432 73 315 13.0 0.0 0.00 0.02 0.00 76 1057.1
20260903114317 73 337 3.5 0.0 0.00 0.02 0.00 75 1057.1
20260903114204 73 270 7.8 0.0 0.00 0.02 0.00 75 1057.1
20260903114051 73 247 10.4 0.0 0.00 0.02 0.00 74 1057.1
20260903113937 74 292 7.8 0.0 0.00 0.02 0.00 74 1057.2
20260903113825 74 292 7.0 0.0 0.00 0.02 0.00 75 1057.0
20260903113712 74 292 16.5 0.0 0.00 0.02 0.00 75 1057.0
20260903113606 74 292 17.4 0.0 0.00 0.02 0.00 75 1057.1
20260903113453 74 225 4.3 0.0 0.00 0.02 0.00 75 1057.0
20260903113340 74 292 7.8 0.0 0.00 0.02 0.00 76 1057.0
20260903113230 74 270 7.8 0.0 0.00 0.02 0.00 76 1057.1
20260903113123 74 247 8.7 0.0 0.00 0.02 0.00 76 1057.1
20260903113018 73 270 14.8 0.0 0.00 0.02 0.00 75 1057.1
20260903112904 74 292 11.3 0.0 0.00 0.02 0.00 75 1057.0
20260903112753 74 270 13.9 0.0 0.00 0.02 0.00 75 1057.0
20260903112647 74 292 7.8 0.0 0.00 0.02 0.00 75 1056.9
20260903112542 74 180 12.2 0.0 0.00 0.02 0.00 75 1056.9
20260903112428 74 292 6.1 0.0 0.00 0.02 0.00 75 1056.9
20260903112317 74 270 6.1 0.0 0.00 0.02 0.00 75 1056.9
20260903112210 74 247 7.8 0.0 0.00 0.02 0.00 75 1057.0
20260903112049 74 225 7.0 0.0 0.00 0.02 0.00 75 1056.9
20260903111938 74 270 7.8 0.0 0.00 0.02 0.00 75 1056.9
20260903111830 74 0 3.5 0.0 0.00 0.02 0.00 75 1056.9
20260903111710 74 270 12.2 0.0 0.00 0.02 0.00 75 1056.8
20260903111605 74 315 7.0 0.0 0.00 0.02 0.00 75 1056.8
20260903111459 74 315 13.0 0.0 0.00 0.02 0.00 75 1056.8
20260903111346 75 292 13.0 0.0 0.00 0.02 0.00 74 1056.8
20260903111232 75 315 7.8 0.0 0.00 0.02 0.00 74 1056.8
20260903111111 75 292 5.2 0.0 0.00 0.02 0.00 74 1056.8
20260903110950 75 315 8.7 0.0 0.00 0.02 0.00 75 1056.8
20260903110838 75 247 8.7 0.0 0.00 0.02 0.00 75 1056.8
20260903110732 75 315 13.0 0.0 0.00 0.02 0.00 75 1056.8
20260903110620 75 292 9.6 0.0 0.00 0.02 0.00 75 1056.7
20260903110515 75 270 9.6 0.0 0.00 0.02 0.00 75 1056.8
20260903110411 75 270 5.2 0.0 0.00 0.02 0.00 75 1056.8
20260903110304 75 292 6.1 0.0 0.00 0.02 0.00 75 1056.7
20260903110136 75 292 7.8 0.0 0.00 0.02 0.00 75 1056.7
20260903105856 75 292 7.0 0.0 0.02 0.02 0.00 75 1056.7
20260903105744 75 270 5.2 0.0 0.02 0.02 0.00 75 1056.6
20260903105624 75 315 14.8 0.0 0.02 0.02 0.00 75 1056.7
20260903105517 75 292 5.2 0.0 0.02 0.02 0.00 74 1056.7
20260903105356 76 270 7.0 0.0 0.02 0.02 0.00 74 1056.6
20260903105250 76 315 6.1 0.0 0.02 0.02 0.00 74 1056.7
20260903105143 76 270 9.6 0.0 0.02 0.02 0.00 74 1056.7
20260903105029 76 270 9.6 0.0 0.02 0.02 0.00 73 1056.7
20260903104919 75 270 6.1 0.0 0.02 0.02 0.00 74 1056.6
20260903104813 75 292 11.3 0.0 0.02 0.02 0.00 74 1056.5
20260903104700 75 270 2.6 0.0 0.02 0.02 0.00 74 1056.5
20260903104552 75 270 8.7 0.0 0.02 0.02 0.00 74 1056.7
20260903104440 75 315 9.6 0.0 0.02 0.02 0.00 75 1056.7
20260903104333 75 292 9.6 0.0 0.02 0.02 0.00 75 1056.7
20260903104223 75 315 5.2 0.0 0.02 0.02 0.00 76 1056.8
20260903104115 75 292 6.1 0.0 0.02 0.02 0.00 76 1056.8
20260903103954 74 270 7.0 0.0 0.02 0.02 0.00 76 1056.9
20260903103841 74 270 6.1 0.0 0.02 0.02 0.00 77 1056.9
20260903103722 74 270 17.4 0.0 0.02 0.02 0.00 77 1056.9
20260903103607 74 247 9.6 0.0 0.02 0.02 0.00 77 1056.9
20260903103448 74 225 13.9 0.0 0.02 0.02 0.00 77 1056.9
20260903103332 74 292 6.1 0.0 0.02 0.02 0.00 77 1057.0
20260903103212 74 270 2.6 0.0 0.02 0.02 0.00 77 1056.9
20260903103106 74 247 5.2 0.0 0.02 0.02 0.00 77 1056.9
20260903102947 74 270 5.2 0.0 0.02 0.02 0.00 76 1056.9
20260903102833 74 315 1.7 0.0 0.02 0.02 0.00 75 1056.9
20260903102727 75 270 11.3 0.0 0.02 0.02 0.00 77 1056.9
20260903102613 75 270 11.3 0.0 0.02 0.02 0.00 76 1056.9
20260903102501 74 270 15.6 0.0 0.02 0.02 0.00 77 1056.9
20260903102340 74 270 11.3 0.0 0.02 0.02 0.00 78 1056.9
20260903102226 74 247 10.4 0.0 0.02 0.02 0.00 78 1056.9
20260903102105 74 315 6.1 0.0 0.02 0.02 0.00 79 1056.9
20260903101953 73 315 6.1 0.0 0.02 0.02 0.00 79 1056.8
20260903101849 73 270 7.0 0.0 0.02 0.02 0.00 79 1056.8
20260903101742 73 247 7.8 0.0 0.02 0.02 0.00 80 1056.9
20260903101629 73 315 6.1 0.0 0.02 0.02 0.00 79 1056.9
20260903101507 73 315 13.9 0.0 0.02 0.02 0.00 80 1056.9
20260903101346 73 270 7.8 0.0 0.02 0.02 0.00 79 1056.9
20260903101233 73 292 14.8 0.0 0.02 0.02 0.00 80 1056.9
20260903101119 73 292 7.0 0.0 0.02 0.02 0.00 79 1056.9
20260903100959 73 292 9.6 0.0 0.02 0.02 0.00 79 1056.9
20260903100848 73 270 6.1 0.0 0.02 0.02 0.00 79 1056.9
20260903100743 73 315 6.1 0.0 0.02 0.02 0.00 79 1056.8
20260903100638 73 315 11.3 0.0 0.02 0.02 0.00 79 1056.8
20260903100531 73 270 13.0 0.0 0.02 0.02 0.00 79 1056.8
20260903100410 73 292 6.1 0.0 0.02 0.02 0.00 80 1056.8
20260903100256 72 292 13.0 0.0 0.00 0.00 0.00 81 1056.8
20260903100143 72 270 7.8 0.0 0.00 0.00 0.00 80 1056.9
20260903100032 72 315 5.2 0.0 0.00 0.00 0.00 81 1056.9
20260903095925 72 292 9.6 0.0 0.00 0.00 0.00 81 1057.0
20260903095812 72 270 7.0 0.0 0.00 0.00 0.00 81 1056.9
20260903095659 72 225 4.3 0.0 0.00 0.00 0.00 81 1056.9
20260903095524 71 292 99.1 0.0 0.00 0.00 0.00 82 1057.0
20260903094932 72 292 99.1 0.0 0.00 0.00 0.00 82 1056.9
20260903094302 70 292 99.1 0.0 0.00 0.00 0.00 86 1057.0
20260903093654 70 292 99.1 0.0 0.00 0.00 0.00 86 1056.9
20260903093052 69 292 99.1 0.0 0.00 0.00 0.00 88 1057.0
20260903092447 69 292 99.1 0.0 0.00 0.00 0.00 90 1057.1
20260903091848 67 292 99.1 0.0 0.00 0.00 0.00 92 1057.2
20260903091238 66 270 4.3 0.0 0.00 0.00 0.00 91 1057.0
20260903091115 66 247 8.7 0.0 0.00 0.00 0.00 91 1057.1
20260903091002 66 225 6.1 0.0 0.00 0.00 0.00 91 1056.9
20260903090839 66 270 7.8 0.0 0.00 0.00 0.00 91 1057.0
20260903090726 66 270 7.0 0.0 0.00 0.00 0.00 91 1057.0
20260903090619 66 247 6.1 0.0 0.00 0.00 0.00 91 1057.1
20260903090514 66 135 1.7 0.0 0.00 0.00 0.00 91 1057.2
20260903090408 66 270 7.0 0.0 0.00 0.00 0.00 91 1057.1
20260903090302 66 270 4.3 0.0 0.00 0.00 0.00 90 1056.9
20260903090148 66 202 6.1 0.0 0.00 0.00 0.00 90 1057.0
20260903090036 66 270 7.8 0.0 0.00 0.00 0.00 90 1057.0
20260903085931 66 270 4.3 0.0 0.00 0.00 0.00 90 1057.1
20260903085823 66 225 7.0 0.0 0.00 0.00 0.00 89 1056.9
20260903085709 67 202 6.1 0.0 0.00 0.00 0.00 89 1057.0
20260903085555 67 202 0.0 0.0 0.00 0.00 0.00 89 1056.9
20260903085450 67 225 0.0 0.0 0.00 0.00 0.00 89 1057.0
20260903085345 67 270 4.3 0.0 0.00 0.00 0.00 88 1056.9
20260903085240 67 247 0.0 0.0 0.00 0.00 0.00 88 1057.1
20260903085135 67 270 0.0 0.0 0.00 0.00 0.00 88 1057.0
20260903085029 67 225 1.7 0.0 0.00 0.00 0.00 88 1056.9
20260903084916 67 247 2.6 0.0 0.00 0.00 0.00 88 1057.1
20260903084756 67 225 7.0 0.0 0.00 0.00 0.00 88 1057.0
20260903084650 67 270 7.8 0.0 0.00 0.00 0.00 87 1057.0
20260903084537 68 270 9.6 0.0 0.00 0.00 0.00 87 1056.9
20260903084432 68 247 7.8 0.0 0.00 0.00 0.00 87 1057.0
20260903084310 68 202 7.0 0.0 0.00 0.00 0.00 87 1057.0
20260903084150 68 157 3.5 0.0 0.00 0.00 0.00 86 1057.1
20260903084044 68 247 4.3 0.0 0.00 0.00 0.00 86 1057.0
20260903083939 68 270 5.2 0.0 0.00 0.00 0.00 86 1056.8
20260903083833 68 247 9.6 0.0 0.00 0.00 0.00 86 1057.0
20260903083727 68 225 7.0 0.0 0.00 0.00 0.00 86 1057.0
20260903083621 68 247 5.2 0.0 0.00 0.00 0.00 85 1056.9
20260903083515 68 247 0.0 0.0 0.00 0.00 0.00 85 1056.9
20260903083410 68 247 11.3 0.0 0.00 0.00 0.00 85 1057.0
20260903083303 68 270 4.3 0.0 0.00 0.00 0.00 85 1057.1
20260903083158 68 292 2.6 0.0 0.00 0.00 0.00 85 1057.0
20260903083051 69 225 4.3 0.0 0.00 0.00 0.00 85 1057.1
20260903082946 69 180 3.5 0.0 0.00 0.00 0.00 85 1057.0
20260903082840 69 247 7.0 0.0 0.00 0.00 0.00 85 1057.0
20260903082733 69 292 5.2 0.0 0.00 0.00 0.00 85 1057.0
20260903082628 68 270 4.3 0.0 0.00 0.00 0.00 85 1056.8
20260903082521 68 247 6.1 0.0 0.00 0.00 0.00 85 1057.0
20260903082407 68 270 7.8 0.0 0.00 0.00 0.00 86 1056.9
20260903082253 68 247 5.2 0.0 0.00 0.00 0.00 86 1056.9
20260903082141 68 315 1.7 0.0 0.00 0.00 0.00 86 1057.0
20260903082031 68 270 4.3 0.0 0.00 0.00 0.00 85 1057.0
20260903081919 68 270 3.5 0.0 0.00 0.00 0.00 85 1057.0
20260903081806 68 247 9.6 0.0 0.00 0.00 0.00 85 1057.0
20260903081653 68 270 3.5 0.0 0.00 0.00 0.00 86 1056.9
20260903081532 68 247 3.5 0.0 0.00 0.00 0.00 85 1056.9
20260903081418 68 270 3.5 0.0 0.00 0.00 0.00 85 1056.8
20260903081300 68 247 7.8 0.0 0.00 0.00 0.00 85 1056.8
20260903081152 68 292 6.1 0.0 0.00 0.00 0.00 86 1056.9
20260903081039 68 247 5.2 0.0 0.00 0.00 0.00 86 1056.8
20260903080934 68 292 4.3 0.0 0.00 0.00 0.00 86 1056.9
20260903080828 68 270 5.2 0.0 0.00 0.00 0.00 86 1056.9
20260903080722 68 247 8.7 0.0 0.00 0.00 0.00 86 1056.9
20260903080616 68 292 5.2 0.0 0.00 0.00 0.00 86 1056.9
20260903080509 68 202 7.0 0.0 0.00 0.00 0.00 87 1056.9
20260903080348 67 225 5.2 0.0 0.00 0.00 0.00 86 1057.0
20260903080219 67 247 6.1 0.0 0.00 0.00 0.00 86 1056.9
20260903080114 67 225 1.7 0.0 0.00 0.00 0.00 86 1057.0
20260903080001 67 225 8.7 0.0 0.00 0.00 0.00 86 1057.0
20260903075848 67 202 4.3 0.0 0.00 0.00 0.00 86 1056.9
20260903075735 67 247 3.5 0.0 0.00 0.00 0.00 86 1056.9
20260903075628 67 225 7.8 0.0 0.00 0.00 0.00 86 1057.0
20260903075523 67 292 6.1 0.0 0.00 0.00 0.00 86 1057.0
20260903075418 67 247 1.7 0.0 0.00 0.00 0.00 86 1056.9
20260903075311 67 202 5.2 0.0 0.00 0.00 0.00 86 1056.9
20260903075205 67 247 5.2 0.0 0.00 0.00 0.00 86 1056.8
20260903075059 67 135 12.2 0.0 0.00 0.00 0.00 86 1056.9
20260903074953 67 270 7.8 0.0 0.00 0.00 0.00 86 1057.0
20260903074834 67 315 4.3 0.0 0.00 0.00 0.00 87 1057.0
20260903074729 67 202 9.6 0.0 0.00 0.00 0.00 87 1057.1
20260903074621 67 247 5.2 0.0 0.00 0.00 0.00 87 1056.9
20260903074501 67 157 2.6 0.0 0.00 0.00 0.00 87 1057.0
20260903074347 67 202 6.1 0.0 0.00 0.00 0.00 87 1057.0
20260903074234 67 270 5.2 0.0 0.00 0.00 0.00 88 1057.0
20260903074122 67 270 1.7 0.0 0.00 0.00 0.00 88 1057.0
20260903074016 66 202 4.3 0.0 0.00 0.00 0.00 88 1057.0
20260903073903 66 270 6.1 0.0 0.00 0.00 0.00 88 1056.9
20260903073757 66 247 6.1 0.0 0.00 0.00 0.00 87 1057.0
20260903073636 66 292 6.1 0.0 0.00 0.00 0.00 87 1056.9
20260903073516 66 247 12.2 0.0 0.00 0.00 0.00 87 1057.0
20260903073404 66 247 4.3 0.0 0.00 0.00 0.00 87 1056.9
20260903073258 66 225 6.1 0.0 0.00 0.00 0.00 87 1056.9
20260903073145 66 247 3.5 0.0 0.00 0.00 0.00 87 1057.0
20260903073031 66 225 6.1 0.0 0.00 0.00 0.00 87 1057.0
20260903072918 66 225 0.0 0.0 0.00 0.00 0.00 87 1056.9
20260903072813 66 202 1.7 0.0 0.00 0.00 0.00 87 1056.9
20260903072653 66 270 1.7 0.0 0.00 0.00 0.00 87 1056.9
20260903072547 66 270 4.3 0.0 0.00 0.00 0.00 87 1056.9
20260903072443 66 225 2.6 0.0 0.00 0.00 0.00 87 1056.9
20260903072331 66 247 0.0 0.0 0.00 0.00 0.00 87 1057.0
20260903072224 66 157 7.0 0.0 0.00 0.00 0.00 87 1056.9
20260903072111 66 292 2.6 0.0 0.00 0.00 0.00 87 1057.1
20260903072006 66 270 4.3 0.0 0.00 0.00 0.00 87 1056.9
20260903071901 66 247 8.7 0.0 0.00 0.00 0.00 87 1057.1
20260903071756 66 270 0.0 0.0 0.00 0.00 0.00 87 1057.0
20260903071650 66 247 4.3 0.0 0.00 0.00 0.00 87 1057.0
20260903071545 66 247 6.1 0.0 0.00 0.00 0.00 88 1057.1
20260903071424 66 180 4.3 0.0 0.00 0.00 0.00 88 1057.0
20260903071311 66 247 0.0 0.0 0.00 0.00 0.00 88 1057.0
20260903071149 65 247 5.2 0.0 0.00 0.00 0.00 88 1056.9
20260903071037 65 270 1.7 0.0 0.00 0.00 0.00 88 1057.0
20260903070932 65 247 1.7 0.0 0.00 0.00 0.00 88 1057.0
20260903070810 65 292 2.6 0.0 0.00 0.00 0.00 88 1056.9
20260903070656 65 270 7.0 0.0 0.00 0.00 0.00 88 1056.9
20260903070536 65 247 5.2 0.0 0.00 0.00 0.00 88 1056.8
20260903070423 65 202 7.0 0.0 0.00 0.00 0.00 88 1056.9
20260903070254 65 157 3.5 0.0 0.00 0.00 0.00 88 1057.0
20260903070143 65 225 7.0 0.0 0.00 0.00 0.00 88 1057.0
20260903070036 65 157 1.7 0.0 0.00 0.00 0.00 88 1056.9
20260903065931 65 225 6.1 0.0 0.00 0.00 0.00 88 1056.9
20260903065826 65 202 5.2 0.0 0.00 0.00 0.00 88 1057.1
20260903065713 65 180 4.3 0.0 0.00 0.00 0.00 88 1057.0
20260903065600 65 180 6.1 0.0 0.00 0.00 0.00 88 1057.0
20260903065454 65 270 4.3 0.0 0.00 0.00 0.00 88 1057.0
20260903065340 65 225 1.7 0.0 0.00 0.00 0.00 88 1056.9
20260903065228 65 225 5.2 0.0 0.00 0.00 0.00 88 1056.9
20260903065106 64 180 5.2 0.0 0.00 0.00 0.00 88 1057.0
20260903064945 65 225 2.6 0.0 0.00 0.00 0.00 88 1057.0
20260903064832 64 202 11.3 0.0 0.00 0.00 0.00 88 1056.9
20260903064718 64 247 4.3 0.0 0.00 0.00 0.00 88 1057.0
20260903064606 64 225 7.8 0.0 0.00 0.00 0.00 88 1057.1
20260903062733 64 180 7.0 0.0 0.00 0.00 0.00 88 1056.8
20260903062629 64 225 7.8 0.0 0.00 0.00 0.00 88 1056.8
20260903062515 64 202 1.7 0.0 0.00 0.00 0.00 88 1056.8
20260903062353 64 225 6.1 0.0 0.00 0.00 0.00 88 1056.8
20260903062242 64 225 5.2 0.0 0.00 0.00 0.00 88 1056.8
20260903062135 64 225 11.3 0.0 0.00 0.00 0.00 88 1056.8
20260903061958 64 225 9.6 0.0 0.00 0.00 0.00 88 1056.8
20260903061837 64 225 2.6 0.0 0.00 0.00 0.00 88 1056.8
20260903061710 64 270 5.2 0.0 0.00 0.00 0.00 88 1056.8
20260903061604 64 202 9.6 0.0 0.00 0.00 0.00 88 1056.8
20260903061450 64 180 6.1 0.0 0.00 0.00 0.00 88 1056.8
20260903061338 64 225 6.1 0.0 0.00 0.00 0.00 89 1056.8
20260903061234 63 225 6.1 0.0 0.00 0.00 0.00 89 1056.9
20260903061128 63 180 15.6 0.0 0.00 0.00 0.00 89 1056.8
20260903061024 63 270 3.5 0.0 0.00 0.00 0.00 89 1056.8
20260903060916 63 247 6.1 0.0 0.00 0.00 0.00 89 1056.8
20260903060806 63 180 7.0 0.0 0.00 0.00 0.00 89 1057.0
20260903060658 63 247 5.2 0.0 0.00 0.00 0.00 89 1056.9
20260903060537 63 225 9.6 0.0 0.00 0.00 0.00 89 1056.8
20260903060415 63 180 7.8 0.0 0.00 0.00 0.00 89 1056.9
20260903060239 63 225 10.4 0.0 0.00 0.00 0.00 89 1056.9
20260903060135 63 225 7.0 0.0 0.00 0.00 0.00 89 1056.9
20260903060028 63 202 6.1 0.0 0.00 0.00 0.00 89 1056.9
20260903055922 63 180 7.0 0.0 0.00 0.00 0.00 89 1057.0
20260903055817 63 157 7.0 0.0 0.00 0.00 0.00 89 1057.1
20260903055711 63 180 4.3 0.0 0.00 0.00 0.00 89 1057.1
20260903055606 63 180 11.3 0.0 0.00 0.00 0.00 89 1057.0
20260903055500 63 202 7.0 0.0 0.00 0.00 0.00 89 1057.1
20260903055354 63 270 2.6 0.0 0.00 0.00 0.00 89 1057.1
20260903055248 63 180 3.5 0.0 0.00 0.00 0.00 89 1057.2
20260903055143 63 247 7.8 0.0 0.00 0.00 0.00 89 1057.2
20260903055029 63 202 2.6 0.0 0.00 0.00 0.00 89 1057.1
20260903054907 63 180 7.8 0.0 0.00 0.00 0.00 89 1057.2
20260903054752 63 180 7.0 0.0 0.00 0.00 0.00 89 1057.2
20260903054623 63 180 3.5 0.0 0.00 0.00 0.00 89 1057.3
20260903054509 63 225 3.5 0.0 0.00 0.00 0.00 89 1057.1
20260903054358 63 202 5.2 0.0 0.00 0.00 0.00 89 1057.2
20260903054250 63 292 2.6 0.0 0.00 0.00 0.00 89 1057.2
20260903054131 63 225 3.5 0.0 0.00 0.00 0.00 89 1057.1
20260903054016 63 180 5.2 0.0 0.00 0.00 0.00 89 1057.3
20260903053733 63 225 11.3 0.0 0.00 0.00 0.00 89 1057.1
20260903053531 63 270 3.5 0.0 0.00 0.00 0.00 89 1057.2
20260903053354 63 247 7.0 0.0 0.00 0.00 0.00 89 1057.3
20260903053224 63 180 10.4 0.0 0.00 0.00 0.00 90 1057.3
20260903053102 63 225 3.5 0.0 0.00 0.00 0.00 90 1057.2
20260903052924 63 202 3.5 0.0 0.00 0.00 0.00 90 1057.3
20260903052755 63 180 10.4 0.0 0.00 0.00 0.00 90 1057.3
20260903052636 63 202 6.1 0.0 0.00 0.00 0.00 90 1057.3
20260903052527 63 247 7.8 0.0 0.00 0.00 0.00 90 1057.2
20260903052406 63 180 4.3 0.0 0.00 0.00 0.00 90 1057.3
20260903052255 62 180 5.2 0.0 0.00 0.00 0.00 90 1057.3
20260903052148 62 225 99.1 0.0 0.00 0.00 0.00 90 1057.3
20260903051518 62 225 99.1 0.0 0.00 0.00 0.00 91 1057.2
20260903050848 62 225 7.0 0.0 0.00 0.00 0.00 91 1057.4
20260903050412 62 225 5.2 0.0 0.00 0.00 0.00 91 1057.1
20260903050242 62 225 4.3 0.0 0.00 0.00 0.00 91 1057.2
20260903050121 62 247 5.2 0.0 0.00 0.00 0.00 91 1057.2
20260903045926 62 225 2.6 0.0 0.00 0.00 0.00 91 1057.1
20260903045757 62 202 6.1 0.0 0.00 0.00 0.00 91 1057.2
20260903045651 62 202 3.5 0.0 0.00 0.00 0.00 91 1057.2
20260903045539 62 225 4.3 0.0 0.00 0.00 0.00 91 1057.3
20260903045425 62 202 8.7 0.0 0.00 0.00 0.00 91 1057.3
20260903045313 62 202 7.0 0.0 0.00 0.00 0.00 91 1057.3
20260903045209 62 180 5.2 0.0 0.00 0.00 0.00 91 1057.3
20260903045100 62 180 12.2 0.0 0.00 0.00 0.00 91 1057.4
20260903044946 62 202 0.0 0.0 0.00 0.00 0.00 91 1057.4
20260903044839 62 247 5.2 0.0 0.00 0.00 0.00 91 1057.3
20260903044728 62 202 6.1 0.0 0.00 0.00 0.00 91 1057.2
20260903044619 62 157 3.5 0.0 0.00 0.00 0.00 91 1057.2
20260903044459 62 202 6.1 0.0 0.00 0.00 0.00 91 1057.1
20260903044353 62 247 7.8 0.0 0.00 0.00 0.00 91 1057.3
20260903044245 62 202 5.2 0.0 0.00 0.00 0.00 91 1057.2
20260903044130 62 180 2.6 0.0 0.00 0.00 0.00 91 1057.2
20260903044000 62 180 3.5 0.0 0.00 0.00 0.00 91 1057.4
20260903043846 62 225 0.0 0.0 0.00 0.00 0.00 91 1057.3
20260903043739 62 225 5.2 0.0 0.00 0.00 0.00 91 1057.4
20260903043609 62 180 5.2 0.0 0.00 0.00 0.00 91 1057.4
20260903043455 62 180 5.2 0.0 0.00 0.00 0.00 91 1057.3
20260903043347 62 157 3.5 0.0 0.00 0.00 0.00 92 1057.3
20260903043227 62 202 5.2 0.0 0.00 0.00 0.00 91 1057.3
20260903043113 62 202 4.3 0.0 0.00 0.00 0.00 92 1057.4
20260903042959 62 202 12.2 0.0 0.00 0.00 0.00 91 1057.4
20260903042854 62 180 4.3 0.0 0.00 0.00 0.00 91 1057.4
20260903042746 62 202 9.6 0.0 0.00 0.00 0.00 91 1057.3
20260903042616 62 202 6.1 0.0 0.00 0.00 0.00 91 1057.4
20260903042502 62 180 6.1 0.0 0.00 0.00 0.00 91 1057.4
20260903042355 62 202 6.1 0.0 0.00 0.00 0.00 91 1057.5
20260903042235 62 225 7.0 0.0 0.00 0.00 0.00 91 1057.5
20260903042119 61 225 7.0 0.0 0.00 0.00 0.00 91 1057.6
20260903042005 61 202 7.0 0.0 0.00 0.00 0.00 91 1057.6
20260903041859 62 202 7.8 0.0 0.00 0.00 0.00 91 1057.6
20260903041744 61 270 5.2 0.0 0.00 0.00 0.00 91 1057.6
20260903041621 62 157 2.6 0.0 0.00 0.00 0.00 91 1057.6
20260903041508 62 180 12.2 0.0 0.00 0.00 0.00 91 1057.6
20260903041400 62 180 10.4 0.0 0.00 0.00 0.00 91 1057.6
20260903041249 62 157 7.8 0.0 0.00 0.00 0.00 91 1057.7
20260903041143 62 180 11.3 0.0 0.00 0.00 0.00 91 1057.6
20260903041026 62 202 7.8 0.0 0.00 0.00 0.00 91 1057.7
20260903040905 62 202 4.3 0.0 0.00 0.00 0.00 91 1057.7
20260903040758 62 247 4.3 0.0 0.00 0.00 0.00 91 1057.6
20260903040628 61 247 5.2 0.0 0.00 0.00 0.00 91 1057.6
20260903040513 61 247 1.7 0.0 0.00 0.00 0.00 91 1057.7
20260903040359 61 157 6.1 0.0 0.00 0.00 0.00 91 1057.7
20260903040237 62 202 5.2 0.0 0.00 0.00 0.00 91 1057.7
20260903040123 62 180 2.6 0.0 0.00 0.00 0.00 91 1057.7
20260903040017 62 135 9.6 0.0 0.00 0.00 0.00 91 1057.7
20260903035911 62 247 4.3 0.0 0.00 0.00 0.00 91 1057.7
20260903035805 62 225 6.1 0.0 0.00 0.00 0.00 91 1057.8
20260903035658 62 180 12.2 0.0 0.00 0.00 0.00 91 1057.7
20260903035537 62 157 3.5 0.0 0.00 0.00 0.00 91 1057.7
20260903035423 62 180 5.2 0.0 0.00 0.00 0.00 91 1057.8
20260903035316 62 202 12.2 0.0 0.00 0.00 0.00 91 1057.8
20260903035202 62 180 6.1 0.0 0.00 0.00 0.00 91 1057.8
20260903035056 62 247 5.2 0.0 0.00 0.00 0.00 91 1057.8
20260903034941 62 225 3.5 0.0 0.00 0.00 0.00 91 1057.8
20260903034819 62 247 6.1 0.0 0.00 0.00 0.00 90 1057.8
20260903034705 62 180 4.3 0.0 0.00 0.00 0.00 90 1057.9
20260903034546 62 247 3.5 0.0 0.00 0.00 0.00 90 1057.9
20260903034439 62 225 5.2 0.0 0.00 0.00 0.00 90 1057.9
20260903034331 62 225 10.4 0.0 0.00 0.00 0.00 90 1057.9
20260903034210 62 157 12.2 0.0 0.00 0.00 0.00 90 1057.9
20260903034051 62 180 10.4 0.0 0.00 0.00 0.00 90 1058.0
20260903033936 62 202 5.2 0.0 0.00 0.00 0.00 89 1058.0
20260903033822 62 180 7.0 0.0 0.00 0.00 0.00 89 1058.1
20260903033712 62 225 7.0 0.0 0.00 0.00 0.00 89 1058.1
20260903033607 62 180 9.6 0.0 0.00 0.00 0.00 89 1058.1
20260903033452 62 202 5.2 0.0 0.00 0.00 0.00 89 1058.0
20260903033338 62 180 7.0 0.0 0.00 0.00 0.00 89 1058.1
20260903033217 62 225 7.0 0.0 0.00 0.00 0.00 89 1058.0
20260903033056 62 157 6.1 0.0 0.00 0.00 0.00 89 1058.0
20260903032943 62 180 7.8 0.0 0.00 0.00 0.00 89 1058.1
20260903032821 62 225 13.0 0.0 0.00 0.00 0.00 88 1058.2
20260903032708 62 180 3.5 0.0 0.00 0.00 0.00 88 1058.2
20260903032555 62 202 1.7 0.0 0.00 0.00 0.00 88 1058.3
20260903032442 62 270 3.5 0.0 0.00 0.00 0.00 88 1058.2
20260903032329 62 202 7.0 0.0 0.00 0.00 0.00 88 1058.2
20260903032216 62 225 9.6 0.0 0.00 0.00 0.00 88 1058.3
20260903032103 62 180 8.7 0.0 0.00 0.00 0.00 88 1058.3
20260903031958 62 202 8.7 0.0 0.00 0.00 0.00 88 1058.2
20260903031839 62 202 5.2 0.0 0.00 0.00 0.00 88 1058.3
20260903031732 62 180 5.2 0.0 0.00 0.00 0.00 88 1058.2
20260903031620 62 247 7.0 0.0 0.00 0.00 0.00 87 1058.3
20260903031513 62 225 2.6 0.0 0.00 0.00 0.00 87 1058.4
20260903031352 62 225 7.8 0.0 0.00 0.00 0.00 87 1058.2
20260903031241 62 180 10.4 0.0 0.00 0.00 0.00 87 1058.3
20260903031133 62 157 6.1 0.0 0.00 0.00 0.00 87 1058.3
20260903031024 62 180 3.5 0.0 0.00 0.00 0.00 87 1058.5
20260903030916 62 202 11.3 0.0 0.00 0.00 0.00 87 1058.3
20260903030802 62 225 11.3 0.0 0.00 0.00 0.00 87 1058.3
20260903030650 62 180 9.6 0.0 0.00 0.00 0.00 87 1058.3
20260903030536 62 225 5.2 0.0 0.00 0.00 0.00 87 1058.5
20260903030415 62 202 7.0 0.0 0.00 0.00 0.00 87 1058.3
20260903030304 62 157 5.2 0.0 0.00 0.00 0.00 87 1058.3
20260903030157 62 180 5.2 0.0 0.00 0.00 0.00 87 1058.2
20260903030044 62 157 1.7 0.0 0.00 0.00 0.00 87 1058.3
20260903025922 62 202 5.2 0.0 0.00 0.00 0.00 87 1058.3
20260903025811 62 225 4.3 0.0 0.00 0.00 0.00 87 1058.4
20260903025707 62 157 4.3 0.0 0.00 0.00 0.00 87 1058.4
20260903025600 62 202 14.8 0.0 0.00 0.00 0.00 87 1058.5
20260903025438 62 202 5.2 0.0 0.00 0.00 0.00 87 1058.5
20260903025325 62 157 3.5 0.0 0.00 0.00 0.00 87 1058.5
20260903025214 62 202 6.1 0.0 0.00 0.00 0.00 87 1058.6
20260903025107 62 225 6.1 0.0 0.00 0.00 0.00 87 1058.6
20260903024954 62 180 5.2 0.0 0.00 0.00 0.00 87 1058.6
20260903024832 62 180 5.2 0.0 0.00 0.00 0.00 87 1058.6
20260903024721 62 157 7.8 0.0 0.00 0.00 0.00 87 1058.7
20260903024616 62 292 0.0 0.0 0.00 0.00 0.00 87 1058.7
20260903024510 62 202 4.3 0.0 0.00 0.00 0.00 87 1058.6
20260903024359 62 225 3.5 0.0 0.00 0.00 0.00 87 1058.7
20260903024253 62 247 4.3 0.0 0.00 0.00 0.00 87 1058.7
20260903024146 62 202 8.7 0.0 0.00 0.00 0.00 87 1058.6
20260903024034 62 180 8.7 0.0 0.00 0.00 0.00 87 1058.6
20260903023919 62 180 11.3 0.0 0.00 0.00 0.00 87 1058.7
20260903023800 62 202 3.5 0.0 0.00 0.00 0.00 87 1058.7
20260903023646 62 202 11.3 0.0 0.00 0.00 0.00 87 1058.7
20260903023533 62 225 6.1 0.0 0.00 0.00 0.00 87 1058.7
20260903023419 62 247 2.6 0.0 0.00 0.00 0.00 87 1058.7
20260903023258 62 180 11.3 0.0 0.00 0.00 0.00 87 1058.7
20260903023137 62 180 6.1 0.0 0.00 0.00 0.00 87 1058.8
20260903023015 62 180 5.2 0.0 0.00 0.00 0.00 87 1058.9
20260903022903 62 180 3.5 0.0 0.00 0.00 0.00 87 1058.9
20260903022758 62 247 5.2 0.0 0.00 0.00 0.00 87 1058.9
20260903022645 62 202 7.8 0.0 0.00 0.00 0.00 87 1059.0
20260903022541 62 225 8.7 0.0 0.00 0.00 0.00 87 1058.9
20260903022426 62 180 4.3 0.0 0.00 0.00 0.00 87 1059.0
20260903022316 62 135 4.3 0.0 0.00 0.00 0.00 87 1058.9
20260903022208 62 202 9.6 0.0 0.00 0.00 0.00 87 1059.0
20260903022057 62 202 6.1 0.0 0.00 0.00 0.00 87 1059.1
20260903021951 62 202 3.5 0.0 0.00 0.00 0.00 87 1059.0
20260903021846 62 135 10.4 0.0 0.00 0.00 0.00 87 1059.0
20260903021740 62 247 3.5 0.0 0.00 0.00 0.00 87 1059.0
20260903021626 62 180 0.0 0.0 0.00 0.00 0.00 87 1059.0
20260903021513 62 225 6.1 0.0 0.00 0.00 0.00 87 1059.0
20260903021403 62 202 5.2 0.0 0.00 0.00 0.00 87 1059.0
20260903021256 62 180 0.9 0.0 0.00 0.00 0.00 87 1058.9
20260903021143 62 202 0.0 0.0 0.00 0.00 0.00 87 1058.9
20260903021039 62 225 10.4 0.0 0.00 0.00 0.00 87 1059.0
20260903020932 62 225 4.3 0.0 0.00 0.00 0.00 87 1059.0
20260903020807 62 225 8.7 0.0 0.00 0.00 0.00 87 1059.0
20260903020658 62 225 5.2 0.0 0.00 0.00 0.00 87 1059.1
20260903020546 62 157 2.6 0.0 0.00 0.00 0.00 87 1059.1
20260903020441 62 202 10.4 0.0 0.00 0.00 0.00 87 1059.1
20260903020319 62 225 5.2 0.0 0.00 0.00 0.00 87 1059.1
20260903020157 62 202 5.2 0.0 0.00 0.00 0.00 87 1059.1
20260903020039 62 225 1.7 0.0 0.00 0.00 0.00 87 1059.1
20260903015934 62 202 7.0 0.0 0.00 0.00 0.00 87 1059.1
20260903015828 62 157 8.7 0.0 0.00 0.00 0.00 86 1059.1
20260903015721 62 157 10.4 0.0 0.00 0.00 0.00 86 1059.1
20260903015609 62 225 3.5 0.0 0.00 0.00 0.00 86 1059.1
20260903015455 62 247 3.5 0.0 0.00 0.00 0.00 86 1059.1
20260903015337 62 202 10.4 0.0 0.00 0.00 0.00 86 1059.1
20260903015221 62 202 5.2 0.0 0.00 0.00 0.00 86 1059.1
20260903015108 62 157 5.2 0.0 0.00 0.00 0.00 86 1059.2
20260903015003 62 202 4.3 0.0 0.00 0.00 0.00 85 1059.2
20260903014858 63 225 3.5 0.0 0.00 0.00 0.00 85 1059.2
20260903014752 63 225 3.5 0.0 0.00 0.00 0.00 85 1059.2
20260903014646 63 202 7.0 0.0 0.00 0.00 0.00 85 1059.3
20260903014540 63 157 5.2 0.0 0.00 0.00 0.00 85 1059.3
20260903014434 63 202 9.6 0.0 0.00 0.00 0.00 85 1059.3
20260903014321 63 202 9.6 0.0 0.00 0.00 0.00 85 1059.3
20260903014213 63 180 10.4 0.0 0.00 0.00 0.00 85 1059.3
20260903014059 63 135 8.7 0.0 0.00 0.00 0.00 85 1059.3
20260903013945 63 225 5.2 0.0 0.00 0.00 0.00 85 1059.3
20260903013831 63 202 3.5 0.0 0.00 0.00 0.00 85 1059.3
20260903013725 63 225 6.1 0.0 0.00 0.00 0.00 85 1059.5
20260903013619 63 180 6.1 0.0 0.00 0.00 0.00 85 1059.3
20260903013513 63 270 0.0 0.0 0.00 0.00 0.00 85 1059.5
20260903013407 63 202 5.2 0.0 0.00 0.00 0.00 85 1059.4
20260903013302 63 180 7.0 0.0 0.00 0.00 0.00 85 1059.5
20260903013155 63 247 6.1 0.0 0.00 0.00 0.00 85 1059.5
20260903013050 63 202 4.3 0.0 0.00 0.00 0.00 86 1059.5
20260903012944 63 135 0.0 0.0 0.00 0.00 0.00 86 1059.5
20260903012825 63 270 4.3 0.0 0.00 0.00 0.00 86 1059.5
20260903012720 63 180 0.0 0.0 0.00 0.00 0.00 86 1059.5
20260903012615 63 247 9.6 0.0 0.00 0.00 0.00 86 1059.6
20260903012508 63 247 3.5 0.0 0.00 0.00 0.00 86 1059.5
20260903012347 63 247 5.2 0.0 0.00 0.00 0.00 86 1059.6
20260903012242 63 180 11.3 0.0 0.00 0.00 0.00 86 1059.6
20260903012120 63 225 3.5 0.0 0.00 0.00 0.00 86 1059.5
20260903011952 63 157 4.3 0.0 0.00 0.00 0.00 86 1059.5
20260903011847 63 247 1.7 0.0 0.00 0.00 0.00 86 1059.6
20260903011735 63 202 4.3 0.0 0.00 0.00 0.00 86 1059.6
20260903011620 63 225 8.7 0.0 0.00 0.00 0.00 86 1059.6
20260903011507 63 157 5.2 0.0 0.00 0.00 0.00 86 1059.6
20260903011337 63 157 1.7 0.0 0.00 0.00 0.00 86 1059.7
20260903011218 63 202 5.2 0.0 0.00 0.00 0.00 86 1059.7
20260903011112 63 202 8.7 0.0 0.00 0.00 0.00 86 1059.7
20260903011000 63 225 1.7 0.0 0.00 0.00 0.00 86 1059.7
20260903010854 63 180 5.2 0.0 0.00 0.00 0.00 86 1059.8
20260903010741 63 202 2.6 0.0 0.00 0.00 0.00 86 1059.8
20260903010636 63 202 0.0 0.0 0.00 0.00 0.00 86 1059.8
20260903010523 63 202 9.6 0.0 0.00 0.00 0.00 85 1059.8
20260903010416 63 202 5.2 0.0 0.00 0.00 0.00 86 1059.9
20260903010301 63 180 0.0 0.0 0.00 0.00 0.00 86 1059.9
20260903010002 63 180 2.6 0.0 0.00 0.00 0.00 86 1059.9
20260903005855 63 180 6.1 0.0 0.00 0.00 0.00 86 1059.9
20260903005741 63 202 7.8 0.0 0.00 0.00 0.00 86 1059.9
20260903005634 63 225 5.2 0.0 0.00 0.00 0.00 86 1060.0
20260903005529 63 202 6.1 0.0 0.00 0.00 0.00 86 1060.0
20260903005421 63 225 2.6 0.0 0.00 0.00 0.00 85 1060.0
20260903005302 63 225 5.2 0.0 0.00 0.00 0.00 85 1060.0
20260903005154 63 202 7.0 0.0 0.00 0.00 0.00 85 1060.0
20260903005039 63 247 9.6 0.0 0.00 0.00 0.00 85 1060.0
20260903004925 63 157 8.7 0.0 0.00 0.00 0.00 85 1060.0
20260903004819 63 180 8.7 0.0 0.00 0.00 0.00 85 1060.1
20260903004705 63 180 4.3 0.0 0.00 0.00 0.00 85 1060.0
20260903004543 63 202 6.1 0.0 0.00 0.00 0.00 85 1060.1
20260903004429 63 135 2.6 0.0 0.00 0.00 0.00 85 1060.3
20260903004322 63 202 6.1 0.0 0.00 0.00 0.00 85 1060.2
20260903004217 63 202 7.8 0.0 0.00 0.00 0.00 85 1060.3
20260903004111 63 247 7.8 0.0 0.00 0.00 0.00 85 1060.3
20260903004004 63 157 5.2 0.0 0.00 0.00 0.00 85 1060.4
20260903003843 63 225 6.1 0.0 0.00 0.00 0.00 84 1060.3
20260903003728 63 202 1.7 0.0 0.00 0.00 0.00 84 1060.3
20260903003613 63 202 10.4 0.0 0.00 0.00 0.00 84 1060.4
20260903003508 63 202 6.1 0.0 0.00 0.00 0.00 84 1060.3
20260903003402 63 202 10.4 0.0 0.00 0.00 0.00 84 1060.4
20260903003255 63 157 2.6 0.0 0.00 0.00 0.00 84 1060.4
20260903003149 63 202 10.4 0.0 0.00 0.00 0.00 84 1060.4
20260903003029 63 202 4.3 0.0 0.00 0.00 0.00 84 1060.4
20260903002921 63 225 11.3 0.0 0.00 0.00 0.00 84 1060.5
20260903002807 63 180 11.3 0.0 0.00 0.00 0.00 84 1060.4
20260903002652 63 225 5.2 0.0 0.00 0.00 0.00 84 1060.5
20260903002532 63 202 7.0 0.0 0.00 0.00 0.00 85 1060.5
20260903002424 63 157 4.3 0.0 0.00 0.00 0.00 85 1060.5
20260903002311 63 225 6.1 0.0 0.00 0.00 0.00 84 1060.5
20260903002204 63 247 2.6 0.0 0.00 0.00 0.00 85 1060.5
20260903002048 63 270 5.2 0.0 0.00 0.00 0.00 85 1060.6
20260903001937 63 202 6.1 0.0 0.00 0.00 0.00 85 1060.6
20260903001829 63 225 5.2 0.0 0.00 0.00 0.00 85 1060.5
20260903001714 63 135 2.6 0.0 0.00 0.00 0.00 85 1060.6
20260903001553 63 202 2.6 0.0 0.00 0.00 0.00 85 1060.5
20260903001447 63 270 0.0 0.0 0.00 0.00 0.00 85 1060.6
20260903001339 63 225 6.1 0.0 0.00 0.00 0.00 85 1060.6
20260903001218 63 180 3.5 0.0 0.00 0.00 0.00 85 1060.6
20260903001104 63 202 0.0 0.0 0.00 0.00 0.00 85 1060.7
20260903000949 63 202 7.0 0.0 0.00 0.00 0.00 85 1060.6
20260903000818 63 180 4.3 0.0 0.00 0.00 0.00 85 1060.6
20260903000705 63 225 5.2 0.0 0.00 0.00 0.00 85 1060.7
20260903000558 63 180 4.3 0.0 0.00 0.00 0.00 85 1060.7
20260903000454 63 202 4.3 0.0 0.00 0.00 0.00 85 1060.7
20260903000332 63 202 6.1 0.0 0.00 0.00 0.00 85 1060.7
20260903000226 63 202 6.1 0.0 0.00 0.00 0.00 85 1060.8
20260903000110 63 202 9.6 0.0 0.00 0.00 0.00 85 1060.7
20260902235955 63 202 0.0 0.0 0.00 0.00 0.00 85 1060.8
20260902235833 63 180 3.5 0.0 0.00 0.00 0.00 85 1060.8
20260902235727 63 157 0.0 0.0 0.00 0.00 0.00 85 1060.8
20260902235613 63 180 3.5 0.0 0.00 0.00 0.00 85 1060.7
20260902235459 63 202 3.5 0.0 0.00 0.00 0.00 85 1060.8
20260902235352 63 225 7.0 0.0 0.00 0.00 0.00 85 1060.7
20260902235230 63 225 0.0 0.0 0.00 0.00 0.00 85 1060.7
20260902235108 63 180 0.0 0.0 0.00 0.00 0.00 85 1060.8
20260902235002 63 180 2.6 0.0 0.00 0.00 0.00 84 1060.7
20260902234856 63 202 5.2 0.0 0.00 0.00 0.00 84 1060.9
20260902234750 63 202 3.5 0.0 0.00 0.00 0.00 84 1060.8
20260902234644 63 202 4.3 0.0 0.00 0.00 0.00 84 1060.8
20260902234532 63 202 4.3 0.0 0.00 0.00 0.00 84 1060.9
20260902234424 63 180 2.6 0.0 0.00 0.00 0.00 84 1060.9
20260902234305 63 180 0.0 0.0 0.00 0.00 0.00 84 1060.9
20260902234156 63 202 0.0 0.0 0.00 0.00 0.00 84 1060.9
20260902234042 63 225 5.2 0.0 0.00 0.00 0.00 84 1060.9
20260902233936 63 247 4.3 0.0 0.00 0.00 0.00 84 1060.9
20260902233821 63 180 3.5 0.0 0.00 0.00 0.00 84 1060.9
20260902233659 63 202 0.0 0.0 0.00 0.00 0.00 84 1060.9
20260902233548 63 180 1.7 0.0 0.00 0.00 0.00 84 1061.0
20260902233442 63 180 6.1 0.0 0.00 0.00 0.00 84 1061.0
20260902233334 63 225 4.3 0.0 0.00 0.00 0.00 84 1061.0
20260902233227 63 180 5.2 0.0 0.00 0.00 0.00 84 1061.0
20260902233114 63 202 0.0 0.0 0.00 0.00 0.00 84 1061.0
20260902233001 63 202 4.3 0.0 0.00 0.00 0.00 84 1061.1
20260902232839 63 180 4.3 0.0 0.00 0.00 0.00 84 1061.1
20260902232734 63 225 0.0 0.0 0.00 0.00 0.00 84 1061.1
20260902232628 63 202 0.0 0.0 0.00 0.00 0.00 84 1061.1
20260902232515 63 202 5.2 0.0 0.00 0.00 0.00 84 1061.1
20260902232410 63 180 5.2 0.0 0.00 0.00 0.00 84 1061.1
20260902232256 63 180 4.3 0.0 0.00 0.00 0.00 84 1061.2
20260902232143 63 225 10.4 0.0 0.00 0.00 0.00 84 1061.1
20260902232038 63 180 1.7 0.0 0.00 0.00 0.00 84 1061.1
20260902231924 63 270 0.0 0.0 0.00 0.00 0.00 84 1061.1
20260902231801 63 202 1.7 0.0 0.00 0.00 0.00 84 1061.2
20260902231648 63 157 3.5 0.0 0.00 0.00 0.00 84 1061.2
20260902231533 63 180 4.3 0.0 0.00 0.00 0.00 84 1061.2
20260902231403 63 225 0.0 0.0 0.00 0.00 0.00 84 1061.2
20260902231249 63 180 5.2 0.0 0.00 0.00 0.00 84 1061.3
20260902231144 63 202 4.3 0.0 0.00 0.00 0.00 84 1061.2
20260902231037 63 270 5.2 0.0 0.00 0.00 0.00 84 1061.2
20260902230932 63 225 4.3 0.0 0.00 0.00 0.00 84 1061.3
20260902230825 63 202 6.1 0.0 0.00 0.00 0.00 84 1061.2
20260902230720 63 202 4.3 0.0 0.00 0.00 0.00 84 1061.2
20260902230614 63 225 2.6 0.0 0.00 0.00 0.00 84 1061.3
20260902230507 63 225 6.1 0.0 0.00 0.00 0.00 84 1061.3
20260902230353 63 202 0.0 0.0 0.00 0.00 0.00 84 1061.2
20260902230231 63 202 5.2 0.0 0.00 0.00 0.00 84 1061.3
20260902230117 63 225 5.2 0.0 0.00 0.00 0.00 83 1061.3
20260902230011 63 180 7.0 0.0 0.00 0.00 0.00 84 1061.4
20260902225905 63 180 0.0 0.0 0.00 0.00 0.00 84 1061.3
20260902225758 63 202 2.6 0.0 0.00 0.00 0.00 84 1061.5
20260902225644 63 180 7.8 0.0 0.00 0.00 0.00 84 1061.5
20260902225529 63 202 0.0 0.0 0.00 0.00 0.00 83 1061.3
20260902225409 63 180 4.3 0.0 0.00 0.00 0.00 83 1061.5
20260902225306 63 202 6.1 0.0 0.00 0.00 0.00 83 1061.4
20260902225158 63 247 3.5 0.0 0.00 0.00 0.00 83 1061.5
20260902225053 63 225 2.6 0.0 0.00 0.00 0.00 83 1061.6
20260902224948 63 180 3.5 0.0 0.00 0.00 0.00 83 1061.4
20260902224825 63 202 4.3 0.0 0.00 0.00 0.00 83 1061.5
20260902224715 63 202 4.3 0.0 0.00 0.00 0.00 83 1061.6
20260902224607 63 180 3.5 0.0 0.00 0.00 0.00 83 1061.6
20260902224454 63 225 5.2 0.0 0.00 0.00 0.00 83 1061.6
20260902224349 63 202 4.3 0.0 0.00 0.00 0.00 84 1061.6
20260902224227 63 225 7.8 0.0 0.00 0.00 0.00 83 1061.7
20260902224121 63 202 0.0 0.0 0.00 0.00 0.00 83 1061.6
20260902224016 63 202 0.0 0.0 0.00 0.00 0.00 84 1061.7
20260902223902 63 180 8.7 0.0 0.00 0.00 0.00 84 1061.7
20260902223748 63 225 1.7 0.0 0.00 0.00 0.00 84 1061.7
20260902223634 63 180 10.4 0.0 0.00 0.00 0.00 84 1061.7
20260902223520 63 157 1.7 0.0 0.00 0.00 0.00 84 1061.7
20260902223406 63 202 4.3 0.0 0.00 0.00 0.00 84 1061.7
20260902223253 63 270 2.6 0.0 0.00 0.00 0.00 84 1061.8
20260902223147 63 270 0.0 0.0 0.00 0.00 0.00 84 1061.8
20260902223040 63 225 6.1 0.0 0.00 0.00 0.00 84 1061.7
20260902222911 63 202 8.7 0.0 0.00 0.00 0.00 84 1061.7
20260902222757 63 225 7.0 0.0 0.00 0.00 0.00 84 1061.7
20260902222634 63 202 7.0 0.0 0.00 0.00 0.00 84 1061.8
20260902222513 63 202 1.7 0.0 0.00 0.00 0.00 84 1061.7
20260902222351 63 225 7.0 0.0 0.00 0.00 0.00 84 1061.8
20260902222236 63 180 4.3 0.0 0.00 0.00 0.00 84 1061.9
20260902222123 63 225 1.7 0.0 0.00 0.00 0.00 84 1062.0
20260902222010 63 202 0.0 0.0 0.00 0.00 0.00 84 1061.8
20260902221849 63 225 7.0 0.0 0.00 0.00 0.00 84 1061.9
20260902221745 63 202 5.2 0.0 0.00 0.00 0.00 84 1061.9
20260902221639 63 247 5.2 0.0 0.00 0.00 0.00 84 1062.0
20260902221525 63 180 5.2 0.0 0.00 0.00 0.00 84 1061.9
20260902221405 63 225 4.3 0.0 0.00 0.00 0.00 83 1062.0
20260902221257 63 202 0.0 0.0 0.00 0.00 0.00 83 1062.0
20260902221136 63 202 2.6 0.0 0.00 0.00 0.00 83 1062.0
20260902221030 63 180 2.6 0.0 0.00 0.00 0.00 83 1061.9
20260902220916 63 202 0.0 0.0 0.00 0.00 0.00 83 1061.9
20260902220804 63 202 3.5 0.0 0.00 0.00 0.00 83 1061.9
20260902220657 63 202 2.6 0.0 0.00 0.00 0.00 83 1061.9
20260902220544 63 202 0.0 0.0 0.00 0.00 0.00 83 1061.9
20260902220431 63 202 2.6 0.0 0.00 0.00 0.00 84 1061.8
20260902220326 63 180 4.3 0.0 0.00 0.00 0.00 84 1061.9
20260902220213 63 180 4.3 0.0 0.00 0.00 0.00 84 1062.0
20260902220101 62 225 0.0 0.0 0.00 0.00 0.00 84 1061.8
20260902215954 62 225 5.2 0.0 0.00 0.00 0.00 84 1061.8
20260902215833 62 202 5.2 0.0 0.00 0.00 0.00 84 1061.9
20260902215712 62 225 6.1 0.0 0.00 0.00 0.00 84 1061.9
20260902215559 62 202 5.2 0.0 0.00 0.00 0.00 84 1061.9
20260902215446 62 202 5.2 0.0 0.00 0.00 0.00 84 1062.0
20260902215341 62 180 0.0 0.0 0.00 0.00 0.00 84 1061.9
20260902215219 62 202 7.0 0.0 0.00 0.00 0.00 84 1062.0
20260902215058 62 180 5.2 0.0 0.00 0.00 0.00 84 1062.1
20260902214939 62 202 1.7 0.0 0.00 0.00 0.00 84 1061.9
20260902214832 62 225 4.3 0.0 0.00 0.00 0.00 84 1061.9
20260902214729 62 202 4.3 0.0 0.00 0.00 0.00 84 1061.8
20260902214621 62 202 3.5 0.0 0.00 0.00 0.00 84 1062.0
20260902214509 62 202 3.5 0.0 0.00 0.00 0.00 83 1062.0